Regional Weather Roundup
Issued by NWS Lake Charles, LA

Home | Current Version | Previous Version | Text Only | Print | Product List | Glossary On
Versions: 1 2 3 4 5 6 7 8 9 10 11 12 13 14 15 16 17 18 19 20 21 22 23 24 25 26 27 28 29 30 31 32 33 34 35 36 37 38 39 40 41 42 43 44 45 46 47 48 49 50
000
ASUS44 KLCH 191310
RWRLCH
RWRLCH
REGIONAL WEATHER ROUNDUP
NATIONAL WEATHER SERVICE LAKE CHARLES LA
700 AM CST FRI DEC 19 2014

Note: "fair" indicates few or no clouds below 12,000 feet with no
significant weather and/or obstructions to visibility.


ACROSS SOUTHEAST TEXAS

CITY           SKY/WX    TMP DP  RH WIND       PRES   REMARKS
BEAUMONT       CLOUDY    59  58  96 E8        30.05R
BEAUMONT CITY  DRIZZLE   58  58  98 E6        30.05R
ORANGE         DRIZZLE   58  57  99 CALM      30.07R
JASPER         RAIN      51  50  96 CALM      30.10R
$$

ACROSS CENTRAL LOUISIANA

CITY           SKY/WX    TMP DP  RH WIND       PRES   REMARKS
LEESVILLE      LGT RAIN  52  50  93 NE9       30.06F FOG
FULLERTON      LGT RAIN  54  50  86 VRB5      30.06S
ALEXANDRIA INT LGT RAIN  52  51  97 N7        30.09
ESLER FIELD    LGT RAIN  51  50  96 VRB3      30.11F
DERIDDER       LGT RAIN  52  51  96 NE7       30.07F
OAKDALE        LGT RAIN  53  51  95 NE6       30.07F
OPELOUSAS      DRIZZLE   53  52  98 NE7       30.10S
$$

ACROSS SOUTHWEST AND SOUTH CENTRAL LOUISIANA

CITY           SKY/WX    TMP DP  RH WIND       PRES   REMARKS
SULPHUR        DRIZZLE   59  58  98 NE5       30.06S
LAKE CHARLES   CLOUDY    58  57  97 MISG      30.05R
CHENNAULT INT  LGT RAIN  55  55 100 E12       30.05R
CAMERON PHI    CLOUDY    59  57  94 NE7       30.07R
DEQUINCY       RAIN      53  53 100 NE5       30.05S
JENNINGS       LGT RAIN  54  54  99 E12       30.06S
LAFAYETTE      CLOUDY    56  32  40 E6        30.09F
NEW IBERIA     CLOUDY    57  54  89 NE12      30.10F
ABBEVILLE      CLOUDY    55  54  94 NE6       30.09F
PATTERSON      CLOUDY    57  55  94 N14       30.12R
SALT POINT       N/A     62  58  86 N13G21    30.09R
$$

SELECTED SITES ACROSS THE REGION

CITY           SKY/WX    TMP DP  RH WIND       PRES   REMARKS
HOUSTON BUSH   LGT RAIN  57  57 100 NE5       30.02R FOG
HOUSTON HOBBY  LGT RAIN  61  59  93 E9        30.00F
GALVESTON      CLOUDY    60  59  96 NE16      30.01F
COLLEGE STAT   LGT RAIN  50  50 100 N13       30.08R
CONROE         HVY RAIN  54  52  93 CALM      30.06R FOG
HUNTSVILLE     HVY RAIN  51  51 100 NE5       30.05F FOG
LUFKIN         RAIN      53  49  86 VRB5      30.09R FOG
SHREVEPORT     CLOUDY    49  46  90 N8        30.14R
MONROE         CLOUDY    47  44  90 NE8       30.18R
NATCHEZ MS     CLOUDY    50  46  87 CALM      30.16R
BATON ROUGE    HVY RAIN  54  53  97 E3        30.15R FOG
N.O. INTL ARPT CLOUDY    57  51  80 NE8       30.12R
SLIDELL        HVY RAIN  54  52  93 N8        30.13R FOG
$$

MARINE REPORTS

STATION/POSITION TIME  TEMP    WIND        PRES    VSBY  WAVE
                       AIR SEA DIR/SP/G                  HT/PER
                 (UTC) (F)     (DEG/KT/KT) (MB)    (MI)  (FT/S)
BUOY 30 S HIGH I 1300   62 65   60/ 23/ 27 1015.1F         5/ 5
SEA RIM ST PARK  1300   58      90/  8/  9 1018.0R
PORT ARTHUR      1300      62   80/  5/  8 1017.6R
SABINE PASS N    1300   58 61   80/  6/  9 1017.6R
TEXAS POINT      NOT AVBL
CALCASIEU PASS   1300   58 60   70/  8/ 12   N/A
LK CHARLES BEACH 1300   57 60              1018.7R
MARSH ISLAND     NOT AVBL
FRESH WATER LOCK 1300   55 61   20/ 11/ 17 1018.3R
AMERADA PASS     1300   59 51   20/  4/  6 1018.4R
$$


USA.gov is the U.S. government's official web portal to all federal, state and local government web resources and services.